TimeEDT,TemperatureF,Dew PointF,Humidity,Sea Level PressureIn,VisibilityMPH,Wind Direction,Wind SpeedMPH,Gust SpeedMPH,PrecipitationIn,Events,Conditions,WindDirDegrees,DateUTC
12:14 AM,78.4,70.9,77,30.18,10.0,WSW,4.6,-,N/A,,Clear,250,2013-07-18 04:14:00
12:34 AM,78.1,70.9,78,30.18,10.0,West,5.8,-,N/A,,Clear,260,2013-07-18 04:34:00
12:54 AM,77.9,70.9,79,30.19,10.0,WSW,4.6,-,N/A,,Clear,240,2013-07-18 04:54:00
1:14 AM,77.7,71.1,80,30.19,10.0,SSW,3.5,-,N/A,,Clear,210,2013-07-18 05:14:00
1:34 AM,75.9,71.1,85,30.18,10.0,SSW,3.5,-,N/A,,Clear,210,2013-07-18 05:34:00
1:54 AM,77.2,71.1,81,30.17,10.0,SW,3.5,-,N/A,,Clear,220,2013-07-18 05:54:00
2:14 AM,76.3,70.9,83,30.17,10.0,Calm,Calm,-,N/A,,Clear,0,2013-07-18 06:14:00
2:34 AM,76.1,71.1,84,30.16,10.0,Calm,Calm,-,N/A,,Clear,0,2013-07-18 06:34:00
2:54 AM,76.1,71.1,84,30.16,10.0,Calm,Calm,-,N/A,,Clear,0,2013-07-18 06:54:00
3:14 AM,76.1,71.2,85,30.15,10.0,West,4.6,-,N/A,,Clear,260,2013-07-18 07:14:00
3:34 AM,75.4,70.9,86,30.15,10.0,West,6.9,-,N/A,,Clear,260,2013-07-18 07:34:00
3:54 AM,75.2,70.9,86,30.14,10.0,West,5.8,-,N/A,,Clear,260,2013-07-18 07:54:00
4:14 AM,75.4,70.9,86,30.14,10.0,WSW,4.6,-,N/A,,Clear,240,2013-07-18 08:14:00
4:34 AM,75.2,71.1,87,30.14,10.0,WSW,5.8,-,N/A,,Clear,250,2013-07-18 08:34:00
4:54 AM,75.2,71.1,87,30.14,10.0,West,5.8,-,N/A,,Clear,270,2013-07-18 08:54:00
5:14 AM,74.7,70.9,88,30.14,10.0,West,5.8,-,N/A,,Clear,270,2013-07-18 09:14:00
5:34 AM,75.2,70.9,86,30.14,10.0,West,5.8,-,N/A,,Clear,270,2013-07-18 09:34:00
5:54 AM,74.7,70.9,88,30.14,10.0,West,6.9,-,N/A,,Clear,260,2013-07-18 09:54:00
6:14 AM,74.5,70.9,88,30.14,10.0,WSW,5.8,-,N/A,,Clear,250,2013-07-18 10:14:00
6:34 AM,74.3,70.9,89,30.14,10.0,West,4.6,-,N/A,,Clear,260,2013-07-18 10:34:00
6:54 AM,74.8,71.2,88,30.14,10.0,WSW,4.6,-,N/A,,Clear,250,2013-07-18 10:54:00
7:14 AM,76.1,71.8,86,30.15,10.0,WSW,4.6,-,N/A,,Clear,250,2013-07-18 11:14:00
7:34 AM,77.0,72.3,85,30.14,10.0,WSW,4.6,-,N/A,,Clear,250,2013-07-18 11:34:00
7:54 AM,78.4,72.9,83,30.14,10.0,West,3.5,-,N/A,,Clear,270,2013-07-18 11:54:00
8:14 AM,80.4,72.7,77,30.13,10.0,WSW,4.6,-,N/A,,Clear,250,2013-07-18 12:14:00
8:34 AM,81.5,73.0,75,30.13,10.0,West,5.8,-,N/A,,Clear,270,2013-07-18 12:34:00
8:54 AM,82.9,73.2,72,30.13,10.0,WNW,5.8,-,N/A,,Clear,290,2013-07-18 12:54:00
9:14 AM,84.2,73.4,70,30.13,10.0,West,5.8,-,N/A,,Clear,260,2013-07-18 13:14:00
9:34 AM,84.9,73.4,68,30.13,10.0,West,3.5,-,N/A,,Clear,270,2013-07-18 13:34:00
9:54 AM,85.8,73.8,67,30.13,10.0,WSW,3.5,-,N/A,,Clear,250,2013-07-18 13:54:00
10:14 AM,86.7,73.8,65,30.12,10.0,West,5.8,-,N/A,,Clear,260,2013-07-18 14:14:00
10:34 AM,87.8,74.3,64,30.12,10.0,Calm,Calm,-,N/A,,Clear,0,2013-07-18 14:34:00
10:54 AM,88.2,74.3,63,30.12,10.0,SW,4.6,-,N/A,,Clear,230,2013-07-18 14:54:00
11:14 AM,89.6,74.5,61,30.12,10.0,West,6.9,-,N/A,,Clear,270,2013-07-18 15:14:00
11:34 AM,89.6,74.1,60,30.12,10.0,West,8.1,-,N/A,,Clear,260,2013-07-18 15:34:00
11:54 AM,90.1,73.6,58,30.12,10.0,West,4.6,-,N/A,,Clear,270,2013-07-18 15:54:00
12:14 PM,91.2,72.7,54,30.11,10.0,SW,6.9,-,N/A,,Clear,220,2013-07-18 16:14:00
12:34 PM,92.3,71.1,50,30.11,10.0,WNW,3.5,-,N/A,,Scattered Clouds,290,2013-07-18 16:34:00
12:54 PM,93.9,70.7,47,30.10,10.0,SW,6.9,-,N/A,,Mostly Cloudy,230,2013-07-18 16:54:00
1:14 PM,94.6,71.1,46,30.09,10.0,West,9.2,-,N/A,,Mostly Cloudy,280,2013-07-18 17:14:00
1:34 PM,94.1,70.3,46,30.08,10.0,West,6.9,-,N/A,,Scattered Clouds,270,2013-07-18 17:34:00
1:54 PM,93.0,70.2,47,30.08,10.0,SW,9.2,-,N/A,,Scattered Clouds,230,2013-07-18 17:54:00
2:14 PM,92.5,69.8,47,30.07,10.0,West,12.7,-,N/A,,Mostly Cloudy,260,2013-07-18 18:14:00
2:34 PM,93.0,70.3,47,30.07,10.0,West,11.5,-,N/A,,Mostly Cloudy,270,2013-07-18 18:34:00
2:54 PM,93.0,70.0,47,30.07,10.0,WSW,9.2,-,N/A,,Mostly Cloudy,240,2013-07-18 18:54:00
3:14 PM,95.2,68.4,41,30.06,10.0,WSW,13.8,18.4,N/A,,Mostly Cloudy,240,2013-07-18 19:14:00
3:34 PM,96.8,68.7,40,30.05,10.0,WSW,17.3,21.9,N/A,,Scattered Clouds,240,2013-07-18 19:34:00
3:54 PM,95.9,69.1,42,30.04,10.0,WSW,16.1,-,N/A,,Scattered Clouds,240,2013-07-18 19:54:00
4:14 PM,95.9,69.1,42,30.03,10.0,West,15.0,19.6,N/A,,Scattered Clouds,260,2013-07-18 20:14:00
4:34 PM,95.9,68.2,40,30.02,10.0,West,11.5,20.7,N/A,,Clear,270,2013-07-18 20:34:00
4:54 PM,95.7,68.9,41,30.02,10.0,WSW,15.0,19.6,N/A,,Scattered Clouds,250,2013-07-18 20:54:00
5:14 PM,93.4,69.3,45,30.02,10.0,WSW,12.7,20.7,N/A,,Mostly Cloudy,240,2013-07-18 21:14:00
5:34 PM,92.1,69.1,47,30.01,10.0,WSW,11.5,19.6,N/A,,Mostly Cloudy,240,2013-07-18 21:34:00
5:54 PM,93.9,68.7,44,30.00,10.0,WSW,13.8,20.7,N/A,,Scattered Clouds,250,2013-07-18 21:54:00
6:14 PM,92.1,68.0,45,29.99,10.0,WSW,12.7,21.9,N/A,,Scattered Clouds,240,2013-07-18 22:14:00
6:34 PM,92.3,68.7,46,29.98,10.0,WSW,11.5,-,N/A,,Scattered Clouds,250,2013-07-18 22:34:00
6:54 PM,92.3,68.0,45,29.98,10.0,WSW,15.0,18.4,N/A,,Clear,250,2013-07-18 22:54:00
7:14 PM,91.4,67.5,45,29.98,10.0,WSW,13.8,18.4,N/A,,Clear,250,2013-07-18 23:14:00
7:34 PM,91.0,68.4,47,29.98,10.0,WSW,11.5,-,N/A,,Clear,240,2013-07-18 23:34:00
7:54 PM,90.0,68.9,50,29.97,10.0,WSW,9.2,-,N/A,,Clear,240,2013-07-18 23:54:00
8:14 PM,88.9,68.9,51,29.97,10.0,WSW,9.2,-,N/A,,Clear,240,2013-07-19 00:14:00
8:34 PM,88.0,69.4,54,29.97,10.0,SW,8.1,-,N/A,,Clear,230,2013-07-19 00:34:00
8:54 PM,86.9,70.0,57,29.96,10.0,SW,6.9,-,N/A,,Clear,220,2013-07-19 00:54:00
9:14 PM,85.8,70.0,59,29.95,10.0,SW,6.9,-,N/A,,Clear,220,2013-07-19 01:14:00
9:34 PM,84.4,70.3,63,29.95,10.0,SSW,6.9,-,N/A,,Clear,200,2013-07-19 01:34:00
9:54 PM,83.3,70.7,66,29.95,10.0,SSW,6.9,-,N/A,,Clear,210,2013-07-19 01:54:00
10:14 PM,82.8,70.7,67,29.95,10.0,SSW,6.9,-,N/A,,Clear,210,2013-07-19 02:14:00
10:34 PM,82.9,70.9,67,29.96,10.0,SSW,6.9,-,N/A,,Clear,210,2013-07-19 02:34:00
10:54 PM,82.4,71.2,69,29.95,10.0,SSW,8.1,-,N/A,,Clear,210,2013-07-19 02:54:00
11:14 PM,82.0,71.8,71,29.96,10.0,SSW,8.1,-,N/A,,Clear,210,2013-07-19 03:14:00
11:34 PM,81.3,72.1,74,29.96,10.0,SW,8.1,-,N/A,,Clear,220,2013-07-19 03:34:00
11:54 PM,81.5,72.5,74,29.96,10.0,SW,9.2,-,N/A,,Clear,220,2013-07-19 03:54:00